Time,TemperatureF,DewpointF,PressureIn,WindDirection,WindDirectionDegrees,WindSpeedMPH,WindSpeedGustMPH,Humidity,HourlyPrecipIn,Conditions,Clouds,dailyrainin,SoftwareType,DateUTC
2013-01-25 00:00:00,10.0,-8.5,30.29,West,270,0.0,22.0,42,0.00,,,0.00,Weather View 32 v70,2013-01-25 05:00:00,
2013-01-25 00:04:00,10.0,-8.0,30.29,NW,315,5.0,22.0,43,0.00,,,0.00,Weather View 32 v70,2013-01-25 05:04:00,
2013-01-25 00:09:00,9.0,-8.9,30.29,NW,315,4.0,22.0,43,0.00,,,0.00,Weather View 32 v70,2013-01-25 05:09:00,
2013-01-25 00:14:00,9.0,-8.5,30.30,WNW,292,3.0,22.0,44,0.00,,,0.00,Weather View 32 v70,2013-01-25 05:14:00,
2013-01-25 00:19:00,9.0,-8.5,30.30,NW,315,9.0,22.0,44,0.00,,,0.00,Weather View 32 v70,2013-01-25 05:19:00,
2013-01-25 00:23:00,9.0,-8.9,30.29,NW,315,10.0,22.0,43,0.00,,,0.00,Weather View 32 v70,2013-01-25 05:23:00,
2013-01-25 00:28:00,9.0,-8.5,30.29,WNW,292,5.0,22.0,44,0.00,,,0.00,Weather View 32 v70,2013-01-25 05:28:00,
2013-01-25 00:33:00,9.0,-8.5,30.28,NW,315,3.0,22.0,44,0.00,,,0.00,Weather View 32 v70,2013-01-25 05:33:00,
2013-01-25 00:38:00,9.0,-7.6,30.28,WNW,292,7.0,22.0,46,0.00,,,0.00,Weather View 32 v70,2013-01-25 05:38:00,
2013-01-25 00:43:00,9.0,-7.6,30.29,NW,315,12.0,22.0,46,0.00,,,0.00,Weather View 32 v70,2013-01-25 05:43:00,
2013-01-25 00:48:00,9.0,-7.6,30.29,NW,315,6.0,22.0,46,0.00,,,0.00,Weather View 32 v70,2013-01-25 05:48:00,
2013-01-25 00:53:00,9.0,-7.6,30.30,NNW,337,12.0,21.0,46,0.00,,,0.00,Weather View 32 v70,2013-01-25 05:53:00,
2013-01-25 00:58:00,9.0,-7.1,30.30,SSW,202,4.0,21.0,47,0.00,,,0.00,Weather View 32 v70,2013-01-25 05:58:00,
2013-01-25 01:03:00,9.0,-7.1,30.29,ESE,112,2.0,21.0,47,0.00,,,0.00,Weather View 32 v70,2013-01-25 06:03:00,
2013-01-25 01:08:00,9.0,-6.7,30.29,NW,315,9.0,21.0,48,0.00,,,0.00,Weather View 32 v70,2013-01-25 06:08:00,
2013-01-25 01:13:00,9.0,-6.7,30.29,NW,315,4.0,16.0,48,0.00,,,0.00,Weather View 32 v70,2013-01-25 06:13:00,
2013-01-25 01:18:00,9.0,-6.3,30.29,West,270,2.0,16.0,49,0.00,,,0.00,Weather View 32 v70,2013-01-25 06:18:00,
2013-01-25 01:23:00,9.0,-6.3,30.29,NNW,337,3.0,16.0,49,0.00,,,0.00,Weather View 32 v70,2013-01-25 06:23:00,
2013-01-25 01:28:00,8.0,-7.2,30.29,NW,315,8.0,15.0,49,0.00,,,0.00,Weather View 32 v70,2013-01-25 06:28:00,
2013-01-25 01:33:00,8.0,-7.2,30.30,NNW,337,4.0,15.0,49,0.00,,,0.00,Weather View 32 v70,2013-01-25 06:33:00,
2013-01-25 01:38:00,8.0,-6.8,30.30,NW,315,0.0,15.0,50,0.00,,,0.00,Weather View 32 v70,2013-01-25 06:38:00,
2013-01-25 01:43:00,8.0,-6.8,30.31,WNW,292,3.0,15.0,50,0.00,,,0.00,Weather View 32 v70,2013-01-25 06:43:00,
2013-01-25 01:48:00,8.0,-6.4,30.31,SSW,202,0.0,15.0,51,0.00,,,0.00,Weather View 32 v70,2013-01-25 06:48:00,
2013-01-25 01:53:00,8.0,-6.4,30.31,WNW,292,3.0,15.0,51,0.00,,,0.00,Weather View 32 v70,2013-01-25 06:53:00,
2013-01-25 01:58:00,7.0,-6.9,30.31,NW,315,4.0,15.0,52,0.00,,,0.00,Weather View 32 v70,2013-01-25 06:58:00,
2013-01-25 02:03:00,7.0,-6.9,30.31,NNE,22,0.0,15.0,52,0.00,,,0.00,Weather View 32 v70,2013-01-25 07:03:00,
2013-01-25 02:08:00,7.0,-6.9,30.31,West,270,1.0,15.0,52,0.00,,,0.00,Weather View 32 v70,2013-01-25 07:08:00,
2013-01-25 02:13:00,7.0,-6.5,30.31,SSE,157,1.0,12.0,53,0.00,,,0.00,Weather View 32 v70,2013-01-25 07:13:00,
2013-01-25 02:18:00,7.0,-6.5,30.31,NW,315,3.0,12.0,53,0.00,,,0.00,Weather View 32 v70,2013-01-25 07:18:00,
2013-01-25 02:23:00,7.0,-6.5,30.32,NW,315,4.0,12.0,53,0.00,,,0.00,Weather View 32 v70,2013-01-25 07:23:00,
2013-01-25 02:28:00,7.0,-6.5,30.32,NW,315,10.0,12.0,53,0.00,,,0.00,Weather View 32 v70,2013-01-25 07:28:00,
2013-01-25 02:33:00,7.0,-6.5,30.31,WNW,292,0.0,12.0,53,0.00,,,0.00,Weather View 32 v70,2013-01-25 07:33:00,
2013-01-25 02:38:00,7.0,-6.5,30.31,NW,315,0.0,13.0,53,0.00,,,0.00,Weather View 32 v70,2013-01-25 07:38:00,
2013-01-25 02:43:00,7.0,-6.5,30.32,NNW,337,6.0,13.0,53,0.00,,,0.00,Weather View 32 v70,2013-01-25 07:43:00,
2013-01-25 02:48:00,7.0,-6.1,30.32,NW,315,2.0,13.0,54,0.00,,,0.00,Weather View 32 v70,2013-01-25 07:48:00,
2013-01-25 02:53:00,7.0,-6.1,30.32,WNW,292,5.0,13.0,54,0.00,,,0.00,Weather View 32 v70,2013-01-25 07:53:00,
2013-01-25 02:58:00,7.0,-5.8,30.32,WNW,292,0.0,13.0,55,0.00,,,0.00,Weather View 32 v70,2013-01-25 07:58:00,
2013-01-25 03:03:00,7.0,-5.8,30.32,South,180,5.0,13.0,55,0.00,,,0.00,Weather View 32 v70,2013-01-25 08:03:00,
2013-01-25 03:08:00,7.0,-5.8,30.32,NNE,22,1.0,13.0,55,0.00,,,0.00,Weather View 32 v70,2013-01-25 08:08:00,
2013-01-25 03:14:00,7.0,-5.8,30.33,NNW,337,2.0,13.0,55,0.00,,,0.00,Weather View 32 v70,2013-01-25 08:14:00,
2013-01-25 03:19:00,7.0,-5.8,30.33,NW,315,3.0,13.0,55,0.00,,,0.00,Weather View 32 v70,2013-01-25 08:19:00,
2013-01-25 03:24:00,7.0,-5.8,30.32,NW,315,5.0,13.0,55,0.00,,,0.00,Weather View 32 v70,2013-01-25 08:24:00,
2013-01-25 03:29:00,7.0,-5.8,30.32,NW,315,5.0,15.0,55,0.00,,,0.00,Weather View 32 v70,2013-01-25 08:29:00,
2013-01-25 03:34:00,7.0,-6.1,30.32,NW,315,7.0,15.0,54,0.00,,,0.00,Weather View 32 v70,2013-01-25 08:34:00,
2013-01-25 03:39:00,7.0,-5.8,30.32,WNW,292,3.0,15.0,55,0.00,,,0.00,Weather View 32 v70,2013-01-25 08:39:00,
2013-01-25 03:44:00,7.0,-5.8,30.32,NW,315,6.0,15.0,55,0.00,,,0.00,Weather View 32 v70,2013-01-25 08:44:00,
2013-01-25 03:49:00,7.0,-5.4,30.32,NW,315,2.0,15.0,56,0.00,,,0.00,Weather View 32 v70,2013-01-25 08:49:00,
2013-01-25 03:54:00,7.0,-5.4,30.32,South,180,1.0,15.0,56,0.00,,,0.00,Weather View 32 v70,2013-01-25 08:54:00,
2013-01-25 03:59:00,7.0,-5.0,30.32,WNW,292,4.0,15.0,57,0.00,,,0.00,Weather View 32 v70,2013-01-25 08:59:00,
2013-01-25 04:04:00,7.0,-5.0,30.32,WNW,292,0.0,15.0,57,0.00,,,0.00,Weather View 32 v70,2013-01-25 09:04:00,
2013-01-25 04:09:00,7.0,-5.0,30.32,NNW,337,0.0,15.0,57,0.00,,,0.00,Weather View 32 v70,2013-01-25 09:09:00,
2013-01-25 04:14:00,6.0,-4.9,30.33,North,360,0.0,15.0,60,0.00,,,0.00,Weather View 32 v70,2013-01-25 09:14:00,
2013-01-25 04:19:00,6.0,-4.6,30.33,SSW,202,0.0,15.0,61,0.00,,,0.00,Weather View 32 v70,2013-01-25 09:19:00,
2013-01-25 04:24:00,6.0,-4.6,30.33,SSW,202,0.0,15.0,61,0.00,,,0.00,Weather View 32 v70,2013-01-25 09:24:00,
2013-01-25 04:29:00,6.0,-4.2,30.33,South,180,0.0,14.0,62,0.00,,,0.00,Weather View 32 v70,2013-01-25 09:29:00,
2013-01-25 04:34:00,6.0,-3.9,30.33,NW,315,3.0,14.0,63,0.00,,,0.00,Weather View 32 v70,2013-01-25 09:34:00,
2013-01-25 04:39:00,6.0,-3.9,30.33,West,270,0.0,14.0,63,0.00,,,0.00,Weather View 32 v70,2013-01-25 09:39:00,
2013-01-25 04:44:00,5.0,-4.8,30.33,NNW,337,0.0,11.0,63,0.00,,,0.00,Weather View 32 v70,2013-01-25 09:44:00,
2013-01-25 04:49:00,5.0,-4.8,30.33,NNW,337,0.0,9.0,63,0.00,,,0.00,Weather View 32 v70,2013-01-25 09:49:00,
2013-01-25 04:54:00,5.0,-4.8,30.33,WNW,292,0.0,9.0,63,0.00,,,0.00,Weather View 32 v70,2013-01-25 09:54:00,
2013-01-25 04:59:00,5.0,-4.8,30.33,NW,315,2.0,7.0,63,0.00,,,0.00,Weather View 32 v70,2013-01-25 09:59:00,
2013-01-25 05:04:00,5.0,-5.2,30.34,WSW,247,0.0,8.0,62,0.00,,,0.00,Weather View 32 v70,2013-01-25 10:04:00,
2013-01-25 05:09:00,5.0,-5.2,30.34,West,270,0.0,8.0,62,0.00,,,0.00,Weather View 32 v70,2013-01-25 10:09:00,
2013-01-25 05:14:00,5.0,-5.2,30.34,South,180,0.0,8.0,62,0.00,,,0.00,Weather View 32 v70,2013-01-25 10:14:00,
2013-01-25 05:19:00,5.0,-5.5,30.34,SSW,202,0.0,8.0,61,0.00,,,0.00,Weather View 32 v70,2013-01-25 10:19:00,
2013-01-25 05:24:00,5.0,-6.5,30.34,ESE,112,0.0,9.0,58,0.00,,,0.00,Weather View 32 v70,2013-01-25 10:24:00,
2013-01-25 05:29:00,5.0,-6.2,30.34,SSW,202,4.0,9.0,59,0.00,,,0.00,Weather View 32 v70,2013-01-25 10:29:00,
2013-01-25 05:34:00,5.0,-6.5,30.35,SSE,157,1.0,9.0,58,0.00,,,0.00,Weather View 32 v70,2013-01-25 10:34:00,
2013-01-25 05:39:00,6.0,-6.3,30.35,SSW,202,0.0,9.0,56,0.00,,,0.00,Weather View 32 v70,2013-01-25 10:39:00,
2013-01-25 05:44:00,6.0,-6.7,30.35,WSW,247,1.0,9.0,55,0.00,,,0.00,Weather View 32 v70,2013-01-25 10:44:00,
2013-01-25 05:49:00,6.0,-7.1,30.35,WSW,247,1.0,13.0,54,0.00,,,0.00,Weather View 32 v70,2013-01-25 10:49:00,
2013-01-25 05:54:00,6.0,-7.1,30.35,North,360,9.0,13.0,54,0.00,,,0.00,Weather View 32 v70,2013-01-25 10:54:00,
2013-01-25 05:59:00,7.0,-6.9,30.35,North,360,1.0,13.0,52,0.00,,,0.00,Weather View 32 v70,2013-01-25 10:59:00,
2013-01-25 06:04:00,7.0,-6.9,30.35,NW,315,1.0,13.0,52,0.00,,,0.00,Weather View 32 v70,2013-01-25 11:04:00,
2013-01-25 06:09:00,7.0,-7.3,30.35,WNW,292,4.0,13.0,51,0.00,,,0.00,Weather View 32 v70,2013-01-25 11:09:00,
2013-01-25 06:14:00,7.0,-6.9,30.35,SE,135,0.0,13.0,52,0.00,,,0.00,Weather View 32 v70,2013-01-25 11:14:00,
2013-01-25 06:19:00,7.0,-6.9,30.35,SSW,202,1.0,13.0,52,0.00,,,0.00,Weather View 32 v70,2013-01-25 11:19:00,
2013-01-25 06:24:00,6.0,-6.7,30.35,South,180,0.0,13.0,55,0.00,,,0.00,Weather View 32 v70,2013-01-25 11:24:00,
2013-01-25 06:29:00,6.0,-6.7,30.35,NW,315,4.0,13.0,55,0.00,,,0.00,Weather View 32 v70,2013-01-25 11:29:00,
2013-01-25 06:34:00,7.0,-6.5,30.35,SSW,202,0.0,13.0,53,0.00,,,0.00,Weather View 32 v70,2013-01-25 11:34:00,
2013-01-25 06:39:00,7.0,-6.5,30.35,NW,315,1.0,13.0,53,0.00,,,0.00,Weather View 32 v70,2013-01-25 11:39:00,
2013-01-25 06:44:00,7.0,-6.1,30.35,SW,225,1.0,13.0,54,0.00,,,0.00,Weather View 32 v70,2013-01-25 11:44:00,
2013-01-25 06:49:00,7.0,-6.1,30.35,NW,315,4.0,13.0,54,0.00,,,0.00,Weather View 32 v70,2013-01-25 11:49:00,
2013-01-25 06:54:00,7.0,-6.1,30.35,NW,315,6.0,13.0,54,0.00,,,0.00,Weather View 32 v70,2013-01-25 11:54:00,
2013-01-25 06:59:00,7.0,-6.5,30.35,SE,135,4.0,13.0,53,0.00,,,0.00,Weather View 32 v70,2013-01-25 11:59:00,
2013-01-25 07:04:00,7.0,-6.5,30.35,SSW,202,3.0,14.0,53,0.00,,,0.00,Weather View 32 v70,2013-01-25 12:04:00,
2013-01-25 07:09:00,7.0,-6.5,30.35,North,360,1.0,14.0,53,0.00,,,0.00,Weather View 32 v70,2013-01-25 12:09:00,
2013-01-25 07:14:00,7.0,-6.1,30.35,NW,315,8.0,14.0,54,0.00,,,0.00,Weather View 32 v70,2013-01-25 12:14:00,
2013-01-25 07:19:00,7.0,-6.1,30.35,WSW,247,2.0,14.0,54,0.00,,,0.00,Weather View 32 v70,2013-01-25 12:19:00,
2013-01-25 07:24:00,7.0,-6.1,30.35,WSW,247,0.0,14.0,54,0.00,,,0.00,Weather View 32 v70,2013-01-25 12:24:00,
2013-01-25 07:29:00,7.0,-6.1,30.35,West,270,1.0,14.0,54,0.00,,,0.00,Weather View 32 v70,2013-01-25 12:29:00,
2013-01-25 07:34:00,7.0,-6.1,30.36,ENE,67,0.0,14.0,54,0.00,,,0.00,Weather View 32 v70,2013-01-25 12:34:00,
2013-01-25 07:39:00,7.0,-6.5,30.36,NW,315,4.0,14.0,53,0.00,,,0.00,Weather View 32 v70,2013-01-25 12:39:00,
2013-01-25 07:44:00,7.0,-6.5,30.36,ESE,112,2.0,14.0,53,0.00,,,0.00,Weather View 32 v70,2013-01-25 12:44:00,
2013-01-25 07:49:00,7.0,-7.3,30.36,NW,315,9.0,14.0,51,0.00,,,0.00,Weather View 32 v70,2013-01-25 12:49:00,
2013-01-25 07:54:00,8.0,-6.0,30.35,NW,315,4.0,15.0,52,0.00,,,0.00,Weather View 32 v70,2013-01-25 12:54:00,
2013-01-25 07:59:00,8.0,-6.4,30.35,WNW,292,4.0,15.0,51,0.00,,,0.00,Weather View 32 v70,2013-01-25 12:59:00,
2013-01-25 08:04:00,8.0,-6.8,30.36,WNW,292,2.0,22.0,50,0.00,,,0.00,Weather View 32 v70,2013-01-25 13:04:00,
2013-01-25 08:09:00,8.0,-6.4,30.36,WSW,247,2.0,22.0,51,0.00,,,0.00,Weather View 32 v70,2013-01-25 13:09:00,
2013-01-25 08:14:00,8.0,-6.8,30.36,NW,315,3.0,22.0,50,0.00,,,0.00,Weather View 32 v70,2013-01-25 13:14:00,
2013-01-25 08:19:00,9.0,-5.9,30.36,NW,315,4.0,22.0,50,0.00,,,0.00,Weather View 32 v70,2013-01-25 13:19:00,
2013-01-25 08:24:00,9.0,-6.3,30.36,South,180,3.0,22.0,49,0.00,,,0.00,Weather View 32 v70,2013-01-25 13:24:00,
2013-01-25 08:29:00,9.0,-6.7,30.36,NW,315,9.0,22.0,48,0.00,,,0.00,Weather View 32 v70,2013-01-25 13:29:00,
2013-01-25 08:35:00,9.0,-7.1,30.36,NNE,22,6.0,22.0,47,0.00,,,0.00,Weather View 32 v70,2013-01-25 13:35:00,
2013-01-25 08:40:00,9.0,-6.3,30.36,SSE,157,3.0,22.0,49,0.00,,,0.00,Weather View 32 v70,2013-01-25 13:40:00,
2013-01-25 08:45:00,9.0,-7.1,30.36,SE,135,0.0,22.0,47,0.00,,,0.00,Weather View 32 v70,2013-01-25 13:45:00,
2013-01-25 08:50:00,10.0,-6.7,30.36,NW,315,5.0,22.0,46,0.00,,,0.00,Weather View 32 v70,2013-01-25 13:50:00,
2013-01-25 08:55:00,10.0,-6.7,30.36,ENE,67,0.0,22.0,46,0.00,,,0.00,Weather View 32 v70,2013-01-25 13:55:00,
2013-01-25 09:00:00,10.0,-7.1,30.36,NNW,337,8.0,22.0,45,0.00,,,0.00,Weather View 32 v70,2013-01-25 14:00:00,
2013-01-25 09:05:00,10.0,-7.1,30.36,NW,315,13.0,21.0,45,0.00,,,0.00,Weather View 32 v70,2013-01-25 14:05:00,
2013-01-25 09:10:00,10.0,-7.1,30.36,North,360,4.0,21.0,45,0.00,,,0.00,Weather View 32 v70,2013-01-25 14:10:00,
2013-01-25 09:15:00,11.0,-7.1,30.36,NW,315,5.0,21.0,43,0.00,,,0.00,Weather View 32 v70,2013-01-25 14:15:00,
2013-01-25 09:20:00,11.0,-7.1,30.36,ENE,67,1.0,23.0,43,0.00,,,0.00,Weather View 32 v70,2013-01-25 14:20:00,
2013-01-25 09:25:00,11.0,-7.1,30.37,NNW,337,7.0,23.0,43,0.00,,,0.00,Weather View 32 v70,2013-01-25 14:25:00,
2013-01-25 09:30:00,11.0,-7.1,30.37,NW,315,9.0,23.0,43,0.00,,,0.00,Weather View 32 v70,2013-01-25 14:30:00,
2013-01-25 09:35:00,11.0,-7.1,30.37,NNW,337,18.0,23.0,43,0.00,,,0.00,Weather View 32 v70,2013-01-25 14:35:00,
2013-01-25 09:40:00,11.0,-7.1,30.37,NW,315,13.0,23.0,43,0.00,,,0.00,Weather View 32 v70,2013-01-25 14:40:00,
2013-01-25 09:45:00,11.0,-7.6,30.37,NNW,337,4.0,23.0,42,0.00,,,0.00,Weather View 32 v70,2013-01-25 14:45:00,
2013-01-25 09:50:00,11.0,-8.1,30.37,West,270,2.0,23.0,41,0.00,,,0.00,Weather View 32 v70,2013-01-25 14:50:00,
2013-01-25 09:55:00,12.0,-7.2,30.36,NNW,337,3.0,23.0,41,0.00,,,0.00,Weather View 32 v70,2013-01-25 14:55:00,
2013-01-25 10:00:00,12.0,-7.2,30.36,NW,315,8.0,23.0,41,0.00,,,0.00,Weather View 32 v70,2013-01-25 15:00:00,
2013-01-25 10:05:00,12.0,-7.2,30.37,WNW,292,5.0,23.0,41,0.00,,,0.00,Weather View 32 v70,2013-01-25 15:05:00,
2013-01-25 10:10:00,12.0,-7.2,30.37,SW,225,1.0,23.0,41,0.00,,,0.00,Weather View 32 v70,2013-01-25 15:10:00,
2013-01-25 10:15:00,13.0,-6.3,30.36,NW,315,7.0,27.0,41,0.00,,,0.00,Weather View 32 v70,2013-01-25 15:15:00,
2013-01-25 10:20:00,13.0,-6.8,30.36,WNW,292,5.0,27.0,40,0.00,,,0.00,Weather View 32 v70,2013-01-25 15:20:00,
2013-01-25 10:25:00,13.0,-6.8,30.36,NW,315,0.0,27.0,40,0.00,,,0.00,Weather View 32 v70,2013-01-25 15:25:00,
2013-01-25 10:30:00,13.0,-7.3,30.36,NNW,337,5.0,27.0,39,0.00,,,0.00,Weather View 32 v70,2013-01-25 15:30:00,
2013-01-25 10:35:00,14.0,-6.9,30.36,North,360,11.0,27.0,38,0.00,,,0.00,Weather View 32 v70,2013-01-25 15:35:00,
2013-01-25 10:40:00,14.0,-6.4,30.36,NW,315,5.0,27.0,39,0.00,,,0.00,Weather View 32 v70,2013-01-25 15:40:00,
2013-01-25 10:45:00,14.0,-6.9,30.36,NW,315,3.0,27.0,38,0.00,,,0.00,Weather View 32 v70,2013-01-25 15:45:00,
2013-01-25 10:50:00,14.0,-6.4,30.36,ESE,112,2.0,27.0,39,0.00,,,0.00,Weather View 32 v70,2013-01-25 15:50:00,
2013-01-25 10:55:00,14.0,-6.4,30.36,North,360,3.0,27.0,39,0.00,,,0.00,Weather View 32 v70,2013-01-25 15:55:00,
2013-01-25 11:00:00,14.0,-6.9,30.36,NNW,337,11.0,27.0,38,0.00,,,0.00,Weather View 32 v70,2013-01-25 16:00:00,
2013-01-25 11:05:00,14.0,-6.9,30.36,NW,315,2.0,27.0,38,0.00,,,0.00,Weather View 32 v70,2013-01-25 16:05:00,
2013-01-25 11:10:00,15.0,-6.6,30.36,North,360,2.0,27.0,37,0.00,,,0.00,Weather View 32 v70,2013-01-25 16:10:00,
2013-01-25 11:15:00,15.0,-7.1,30.34,NNW,337,3.0,25.0,36,0.00,,,0.00,Weather View 32 v70,2013-01-25 16:15:00,
2013-01-25 11:20:00,15.0,-8.3,30.34,SSE,157,3.0,17.0,34,0.00,,,0.00,Weather View 32 v70,2013-01-25 16:20:00,
2013-01-25 11:25:00,16.0,-8.0,30.34,South,180,3.0,17.0,33,0.00,,,0.00,Weather View 32 v70,2013-01-25 16:25:00,
2013-01-25 11:30:00,16.0,-8.0,30.34,WNW,292,8.0,17.0,33,0.00,,,0.00,Weather View 32 v70,2013-01-25 16:30:00,
2013-01-25 11:35:00,16.0,-8.0,30.34,WNW,292,9.0,17.0,33,0.00,,,0.00,Weather View 32 v70,2013-01-25 16:35:00,
2013-01-25 11:40:00,16.0,-7.4,30.34,South,180,1.0,17.0,34,0.00,,,0.00,Weather View 32 v70,2013-01-25 16:40:00,
2013-01-25 11:45:00,16.0,-8.0,30.33,WSW,247,0.0,16.0,33,0.00,,,0.00,Weather View 32 v70,2013-01-25 16:45:00,
2013-01-25 11:50:00,16.0,-8.7,30.33,NE,45,0.0,16.0,32,0.00,,,0.00,Weather View 32 v70,2013-01-25 16:50:00,
2013-01-25 11:55:00,17.0,-7.1,30.32,NW,315,7.0,16.0,33,0.00,,,0.00,Weather View 32 v70,2013-01-25 16:55:00,
2013-01-25 12:00:00,17.0,-8.4,30.32,NW,315,5.0,16.0,31,0.00,,,0.00,Weather View 32 v70,2013-01-25 17:00:00,
2013-01-25 12:05:00,17.0,-7.8,30.31,SE,135,0.0,16.0,32,0.00,,,0.00,Weather View 32 v70,2013-01-25 17:05:00,
2013-01-25 12:10:00,17.0,-8.4,30.31,South,180,3.0,16.0,31,0.00,,,0.00,Weather View 32 v70,2013-01-25 17:10:00,
2013-01-25 12:15:00,17.0,-8.4,30.30,WSW,247,0.0,16.0,31,0.00,,,0.00,Weather View 32 v70,2013-01-25 17:15:00,
2013-01-25 12:20:00,17.0,-8.4,30.30,WSW,247,4.0,16.0,31,0.00,,,0.00,Weather View 32 v70,2013-01-25 17:20:00,
2013-01-25 12:25:00,18.0,-8.2,30.31,NW,315,4.0,16.0,30,0.00,,,0.00,Weather View 32 v70,2013-01-25 17:25:00,
2013-01-25 12:30:00,18.0,-8.9,30.31,NW,315,9.0,19.0,29,0.00,,,0.00,Weather View 32 v70,2013-01-25 17:30:00,
2013-01-25 12:35:00,18.0,-8.9,30.30,NW,315,10.0,25.0,29,0.00,,,0.00,Weather View 32 v70,2013-01-25 17:35:00,
2013-01-25 12:40:00,18.0,-8.9,30.30,SSW,202,1.0,25.0,29,0.00,,,0.00,Weather View 32 v70,2013-01-25 17:40:00,
2013-01-25 12:45:00,18.0,-8.9,30.29,WNW,292,5.0,25.0,29,0.00,,,0.00,Weather View 32 v70,2013-01-25 17:45:00,
2013-01-25 12:50:00,19.0,-8.0,30.29,North,360,4.0,25.0,29,0.00,,,0.00,Weather View 32 v70,2013-01-25 17:50:00,
2013-01-25 12:55:00,19.0,-9.5,30.28,WNW,292,7.0,25.0,27,0.00,,,0.00,Weather View 32 v70,2013-01-25 17:55:00,
2013-01-25 13:00:00,19.0,-8.7,30.28,NW,315,4.0,25.0,28,0.00,,,0.00,Weather View 32 v70,2013-01-25 18:00:00,
2013-01-25 13:05:00,19.0,-8.0,30.28,SSW,202,1.0,25.0,29,0.00,,,0.00,Weather View 32 v70,2013-01-25 18:05:00,
2013-01-25 13:10:00,19.0,-8.7,30.28,SE,135,2.0,25.0,28,0.00,,,0.00,Weather View 32 v70,2013-01-25 18:10:00,
2013-01-25 13:15:00,19.0,-9.5,30.27,SE,135,0.0,25.0,27,0.00,,,0.00,Weather View 32 v70,2013-01-25 18:15:00,
2013-01-25 13:20:00,19.0,-9.5,30.27,WNW,292,5.0,25.0,27,0.00,,,0.00,Weather View 32 v70,2013-01-25 18:20:00,
2013-01-25 13:25:00,19.0,-8.7,30.27,SW,225,3.0,25.0,28,0.00,,,0.00,Weather View 32 v70,2013-01-25 18:25:00,
2013-01-25 13:31:00,19.0,-8.7,30.27,SSE,157,3.0,25.0,28,0.00,,,0.00,Weather View 32 v70,2013-01-25 18:31:00,
2013-01-25 13:36:00,20.0,-9.4,30.26,NW,315,12.0,23.0,26,0.00,,,0.00,Weather View 32 v70,2013-01-25 18:36:00,
2013-01-25 13:41:00,20.0,-8.6,30.26,NNE,22,0.0,23.0,27,0.00,,,0.00,Weather View 32 v70,2013-01-25 18:41:00,
2013-01-25 13:46:00,20.0,-8.6,30.26,South,180,4.0,19.0,27,0.00,,,0.00,Weather View 32 v70,2013-01-25 18:46:00,
2013-01-25 13:51:00,20.0,-9.4,30.26,NW,315,6.0,19.0,26,0.00,,,0.00,Weather View 32 v70,2013-01-25 18:51:00,
2013-01-25 13:56:00,20.0,-9.4,30.25,NW,315,7.0,16.0,26,0.00,,,0.00,Weather View 32 v70,2013-01-25 18:56:00,
2013-01-25 14:01:00,20.0,-10.2,30.25,NW,315,6.0,15.0,25,0.00,,,0.00,Weather View 32 v70,2013-01-25 19:01:00,
2013-01-25 14:06:00,20.0,-9.4,30.24,West,270,0.0,15.0,26,0.00,,,0.00,Weather View 32 v70,2013-01-25 19:06:00,
2013-01-25 14:11:00,20.0,-9.4,30.24,SSW,202,2.0,17.0,26,0.00,,,0.00,Weather View 32 v70,2013-01-25 19:11:00,
2013-01-25 14:16:00,20.0,-8.6,30.24,NE,45,0.0,17.0,27,0.00,,,0.00,Weather View 32 v70,2013-01-25 19:16:00,
2013-01-25 14:21:00,21.0,-10.1,30.24,NW,315,5.0,17.0,24,0.00,,,0.00,Weather View 32 v70,2013-01-25 19:21:00,
2013-01-25 14:26:00,21.0,-10.1,30.23,NW,315,7.0,17.0,24,0.00,,,0.00,Weather View 32 v70,2013-01-25 19:26:00,
2013-01-25 14:31:00,21.0,-8.5,30.23,NNW,337,2.0,17.0,26,0.00,,,0.00,Weather View 32 v70,2013-01-25 19:31:00,
2013-01-25 14:36:00,21.0,-10.1,30.24,SSW,202,3.0,17.0,24,0.00,,,0.00,Weather View 32 v70,2013-01-25 19:36:00,
2013-01-25 14:41:00,21.0,-10.1,30.24,NW,315,5.0,17.0,24,0.00,,,0.00,Weather View 32 v70,2013-01-25 19:41:00,
2013-01-25 14:46:00,21.0,-8.5,30.23,NNE,22,1.0,17.0,26,0.00,,,0.00,Weather View 32 v70,2013-01-25 19:46:00,
2013-01-25 14:51:00,21.0,-9.3,30.23,NNW,337,1.0,17.0,25,0.00,,,0.00,Weather View 32 v70,2013-01-25 19:51:00,
2013-01-25 14:56:00,22.0,-9.3,30.23,SSE,157,4.0,17.0,24,0.00,,,0.00,Weather View 32 v70,2013-01-25 19:56:00,
2013-01-25 15:01:00,22.0,-9.3,30.23,NNW,337,1.0,17.0,24,0.00,,,0.00,Weather View 32 v70,2013-01-25 20:01:00,
2013-01-25 15:06:00,22.0,-9.3,30.23,SSW,202,1.0,17.0,24,0.00,,,0.00,Weather View 32 v70,2013-01-25 20:06:00,
2013-01-25 15:11:00,22.0,-9.3,30.23,South,180,5.0,11.0,24,0.00,,,0.00,Weather View 32 v70,2013-01-25 20:11:00,
2013-01-25 15:16:00,22.0,-8.5,30.22,NNW,337,1.0,11.0,25,0.00,,,0.00,Weather View 32 v70,2013-01-25 20:16:00,
2013-01-25 15:21:00,22.0,-8.5,30.22,North,360,0.0,11.0,25,0.00,,,0.00,Weather View 32 v70,2013-01-25 20:21:00,
2013-01-25 15:26:00,22.0,-9.3,30.22,South,180,2.0,11.0,24,0.00,,,0.00,Weather View 32 v70,2013-01-25 20:26:00,
2013-01-25 15:31:00,22.0,-9.3,30.22,SSW,202,2.0,11.0,24,0.00,,,0.00,Weather View 32 v70,2013-01-25 20:31:00,
2013-01-25 15:36:00,22.0,-8.5,30.22,NNW,337,8.0,11.0,25,0.00,,,0.00,Weather View 32 v70,2013-01-25 20:36:00,
2013-01-25 15:41:00,22.0,-8.5,30.22,NE,45,0.0,11.0,25,0.00,,,0.00,Weather View 32 v70,2013-01-25 20:41:00,
2013-01-25 15:46:00,22.0,-9.3,30.22,NNW,337,6.0,13.0,24,0.00,,,0.00,Weather View 32 v70,2013-01-25 20:46:00,
2013-01-25 15:51:00,22.0,-8.5,30.22,NW,315,4.0,13.0,25,0.00,,,0.00,Weather View 32 v70,2013-01-25 20:51:00,
2013-01-25 15:56:00,21.0,-8.5,30.21,NW,315,4.0,13.0,26,0.00,,,0.00,Weather View 32 v70,2013-01-25 20:56:00,
2013-01-25 16:01:00,21.0,-8.5,30.21,WSW,247,2.0,13.0,26,0.00,,,0.00,Weather View 32 v70,2013-01-25 21:01:00,
2013-01-25 16:06:00,21.0,-8.5,30.22,NNE,22,0.0,16.0,26,0.00,,,0.00,Weather View 32 v70,2013-01-25 21:06:00,
2013-01-25 16:11:00,21.0,-8.5,30.22,NW,315,6.0,16.0,26,0.00,,,0.00,Weather View 32 v70,2013-01-25 21:11:00,
2013-01-25 16:16:00,21.0,-9.3,30.23,NW,315,4.0,16.0,25,0.00,,,0.00,Weather View 32 v70,2013-01-25 21:16:00,
2013-01-25 16:21:00,21.0,-8.5,30.23,NW,315,7.0,16.0,26,0.00,,,0.00,Weather View 32 v70,2013-01-25 21:21:00,
2013-01-25 16:26:00,20.0,-8.6,30.22,South,180,0.0,16.0,27,0.00,,,0.00,Weather View 32 v70,2013-01-25 21:26:00,
2013-01-25 16:31:00,20.0,-8.6,30.22,NW,315,2.0,16.0,27,0.00,,,0.00,Weather View 32 v70,2013-01-25 21:31:00,
2013-01-25 16:36:00,20.0,-7.2,30.23,WSW,247,0.0,16.0,29,0.00,,,0.00,Weather View 32 v70,2013-01-25 21:36:00,
2013-01-25 16:41:00,20.0,-8.6,30.23,WNW,292,4.0,16.0,27,0.00,,,0.00,Weather View 32 v70,2013-01-25 21:41:00,
2013-01-25 16:46:00,20.0,-7.9,30.23,NNW,337,5.0,16.0,28,0.00,,,0.00,Weather View 32 v70,2013-01-25 21:46:00,
2013-01-25 16:51:00,20.0,-7.2,30.23,SSW,202,3.0,16.0,29,0.00,,,0.00,Weather View 32 v70,2013-01-25 21:51:00,
2013-01-25 16:56:00,20.0,-7.2,30.23,NW,315,2.0,16.0,29,0.00,,,0.00,Weather View 32 v70,2013-01-25 21:56:00,
2013-01-25 17:01:00,19.0,-8.0,30.23,NNW,337,3.0,16.0,29,0.00,,,0.00,Weather View 32 v70,2013-01-25 22:01:00,
2013-01-25 17:06:00,19.0,-8.0,30.22,NW,315,4.0,12.0,29,0.00,,,0.00,Weather View 32 v70,2013-01-25 22:06:00,
2013-01-25 17:11:00,19.0,-8.0,30.22,WNW,292,3.0,12.0,29,0.00,,,0.00,Weather View 32 v70,2013-01-25 22:11:00,
2013-01-25 17:16:00,19.0,-7.3,30.22,West,270,0.0,12.0,30,0.00,,,0.00,Weather View 32 v70,2013-01-25 22:16:00,
2013-01-25 17:21:00,19.0,-7.3,30.22,WNW,292,2.0,12.0,30,0.00,,,0.00,Weather View 32 v70,2013-01-25 22:21:00,
2013-01-25 17:26:00,19.0,-7.3,30.22,NW,315,0.0,10.0,30,0.00,,,0.00,Weather View 32 v70,2013-01-25 22:26:00,
2013-01-25 17:31:00,19.0,-6.7,30.22,East,90,0.0,10.0,31,0.00,,,0.00,Weather View 32 v70,2013-01-25 22:31:00,
2013-01-25 17:36:00,19.0,-8.0,30.22,NW,315,4.0,10.0,29,0.00,,,0.00,Weather View 32 v70,2013-01-25 22:36:00,
2013-01-25 17:41:00,19.0,-8.0,30.22,SSE,157,3.0,10.0,29,0.00,,,0.00,Weather View 32 v70,2013-01-25 22:41:00,
2013-01-25 17:46:00,19.0,-8.0,30.22,NW,315,6.0,10.0,29,0.00,,,0.00,Weather View 32 v70,2013-01-25 22:46:00,
2013-01-25 17:51:00,19.0,-6.7,30.22,NW,315,4.0,10.0,31,0.00,,,0.00,Weather View 32 v70,2013-01-25 22:51:00,
2013-01-25 17:56:00,19.0,-6.7,30.22,WSW,247,0.0,10.0,31,0.00,,,0.00,Weather View 32 v70,2013-01-25 22:56:00,
2013-01-25 18:01:00,19.0,-6.7,30.22,SSW,202,1.0,10.0,31,0.00,,,0.00,Weather View 32 v70,2013-01-25 23:01:00,
2013-01-25 18:06:00,19.0,-6.7,30.21,NW,315,3.0,10.0,31,0.00,,,0.00,Weather View 32 v70,2013-01-25 23:06:00,
2013-01-25 18:11:00,19.0,-6.7,30.21,NW,315,1.0,10.0,31,0.00,,,0.00,Weather View 32 v70,2013-01-25 23:11:00,
2013-01-25 18:16:00,19.0,-6.7,30.21,NW,315,5.0,10.0,31,0.00,,,0.00,Weather View 32 v70,2013-01-25 23:16:00,
2013-01-25 18:21:00,19.0,-6.7,30.21,NW,315,0.0,10.0,31,0.00,,,0.00,Weather View 32 v70,2013-01-25 23:21:00,
2013-01-25 18:26:00,19.0,-6.7,30.21,West,270,0.0,10.0,31,0.00,,,0.00,Weather View 32 v70,2013-01-25 23:26:00,
2013-01-25 18:31:00,19.0,-6.7,30.21,NW,315,2.0,10.0,31,0.00,,,0.00,Weather View 32 v70,2013-01-25 23:31:00,
2013-01-25 18:36:00,19.0,-6.7,30.21,NW,315,4.0,10.0,31,0.00,,,0.00,Weather View 32 v70,2013-01-25 23:36:00,
2013-01-25 18:41:00,19.0,-6.7,30.21,NW,315,1.0,10.0,31,0.00,,,0.00,Weather View 32 v70,2013-01-25 23:41:00,
2013-01-25 18:46:00,19.0,-6.7,30.20,WNW,292,0.0,10.0,31,0.00,,,0.00,Weather View 32 v70,2013-01-25 23:46:00,
2013-01-25 18:51:00,19.0,-6.7,30.20,NW,315,2.0,10.0,31,0.00,,,0.00,Weather View 32 v70,2013-01-25 23:51:00,
2013-01-25 18:56:00,19.0,-6.7,30.20,West,270,0.0,8.0,31,0.00,,,0.00,Weather View 32 v70,2013-01-25 23:56:00,
2013-01-25 19:01:00,19.0,-6.7,30.20,WNW,292,3.0,8.0,31,0.00,,,0.00,Weather View 32 v70,2013-01-26 00:01:00,
2013-01-25 19:06:00,19.0,-5.4,30.19,NW,315,0.0,8.0,33,0.00,,,0.00,Weather View 32 v70,2013-01-26 00:06:00,
2013-01-25 19:11:00,19.0,-6.7,30.19,NW,315,2.0,8.0,31,0.00,,,0.00,Weather View 32 v70,2013-01-26 00:11:00,
2013-01-25 19:16:00,19.0,-6.7,30.19,NW,315,3.0,8.0,31,0.00,,,0.00,Weather View 32 v70,2013-01-26 00:16:00,
2013-01-25 19:21:00,19.0,-7.3,30.19,West,270,4.0,9.0,30,0.00,,,0.00,Weather View 32 v70,2013-01-26 00:21:00,
2013-01-25 19:26:00,19.0,-6.7,30.19,NW,315,3.0,9.0,31,0.00,,,0.00,Weather View 32 v70,2013-01-26 00:26:00,
2013-01-25 19:31:00,19.0,-6.0,30.19,SE,135,1.0,10.0,32,0.00,,,0.00,Weather View 32 v70,2013-01-26 00:31:00,
2013-01-25 19:36:00,19.0,-6.7,30.19,WSW,247,1.0,10.0,31,0.00,,,0.00,Weather View 32 v70,2013-01-26 00:36:00,
2013-01-25 19:41:00,19.0,-6.0,30.19,NW,315,5.0,10.0,32,0.00,,,0.00,Weather View 32 v70,2013-01-26 00:41:00,
2013-01-25 19:46:00,19.0,-6.0,30.19,WSW,247,0.0,10.0,32,0.00,,,0.00,Weather View 32 v70,2013-01-26 00:46:00,
2013-01-25 19:51:00,19.0,-5.4,30.19,South,180,2.0,10.0,33,0.00,,,0.00,Weather View 32 v70,2013-01-26 00:51:00,
2013-01-25 19:56:00,19.0,-6.0,30.19,North,360,1.0,10.0,32,0.00,,,0.00,Weather View 32 v70,2013-01-26 00:56:00,
2013-01-25 20:01:00,19.0,-6.7,30.19,NW,315,4.0,10.0,31,0.00,,,0.00,Weather View 32 v70,2013-01-26 01:01:00,
2013-01-25 20:06:00,19.0,-6.0,30.19,WNW,292,0.0,10.0,32,0.00,,,0.00,Weather View 32 v70,2013-01-26 01:06:00,
2013-01-25 20:11:00,19.0,-6.0,30.19,NNW,337,1.0,10.0,32,0.00,,,0.00,Weather View 32 v70,2013-01-26 01:11:00,
2013-01-25 20:16:00,19.0,-6.7,30.18,NNW,337,1.0,10.0,31,0.00,,,0.00,Weather View 32 v70,2013-01-26 01:16:00,
2013-01-25 20:21:00,19.0,-6.7,30.18,NW,315,3.0,10.0,31,0.00,,,0.00,Weather View 32 v70,2013-01-26 01:21:00,
2013-01-25 20:26:00,19.0,-6.7,30.17,NW,315,5.0,10.0,31,0.00,,,0.00,Weather View 32 v70,2013-01-26 01:26:00,
2013-01-25 20:31:00,19.0,-6.7,30.17,NW,315,4.0,9.0,31,0.00,,,0.00,Weather View 32 v70,2013-01-26 01:31:00,
2013-01-25 20:36:00,19.0,-6.0,30.17,WSW,247,0.0,9.0,32,0.00,,,0.00,Weather View 32 v70,2013-01-26 01:36:00,
2013-01-25 20:41:00,19.0,-6.0,30.17,SSW,202,1.0,9.0,32,0.00,,,0.00,Weather View 32 v70,2013-01-26 01:41:00,
2013-01-25 20:46:00,19.0,-6.0,30.17,WNW,292,0.0,9.0,32,0.00,,,0.00,Weather View 32 v70,2013-01-26 01:46:00,
2013-01-25 20:51:00,19.0,-5.4,30.17,NW,315,0.0,9.0,33,0.00,,,0.00,Weather View 32 v70,2013-01-26 01:51:00,
2013-01-25 20:56:00,19.0,-5.4,30.16,WSW,247,0.0,9.0,33,0.00,,,0.00,Weather View 32 v70,2013-01-26 01:56:00,
2013-01-25 21:01:00,19.0,-6.0,30.16,NW,315,1.0,9.0,32,0.00,,,0.00,Weather View 32 v70,2013-01-26 02:01:00,
2013-01-25 21:07:00,19.0,-6.0,30.16,NW,315,1.0,9.0,32,0.00,,,0.00,Weather View 32 v70,2013-01-26 02:07:00,
2013-01-25 21:12:00,19.0,-6.0,30.16,NW,315,2.0,9.0,32,0.00,,,0.00,Weather View 32 v70,2013-01-26 02:12:00,
2013-01-25 21:17:00,19.0,-5.4,30.16,NW,315,0.0,9.0,33,0.00,,,0.00,Weather View 32 v70,2013-01-26 02:17:00,
2013-01-25 21:22:00,19.0,-6.0,30.16,NW,315,0.0,9.0,32,0.00,,,0.00,Weather View 32 v70,2013-01-26 02:22:00,
2013-01-25 21:27:00,19.0,-6.0,30.16,NW,315,4.0,9.0,32,0.00,,,0.00,Weather View 32 v70,2013-01-26 02:27:00,
2013-01-25 21:32:00,19.0,-5.4,30.16,NW,315,0.0,9.0,33,0.00,,,0.00,Weather View 32 v70,2013-01-26 02:32:00,
2013-01-25 21:37:00,19.0,-6.0,30.15,West,270,0.0,9.0,32,0.00,,,0.00,Weather View 32 v70,2013-01-26 02:37:00,
2013-01-25 21:42:00,19.0,-6.7,30.15,NW,315,1.0,9.0,31,0.00,,,0.00,Weather View 32 v70,2013-01-26 02:42:00,
2013-01-25 21:47:00,19.0,-5.4,30.15,NW,315,1.0,9.0,33,0.00,,,0.00,Weather View 32 v70,2013-01-26 02:47:00,
2013-01-25 21:52:00,19.0,-6.7,30.15,NW,315,3.0,9.0,31,0.00,,,0.00,Weather View 32 v70,2013-01-26 02:52:00,
2013-01-25 21:57:00,19.0,-6.7,30.15,NW,315,2.0,9.0,31,0.00,,,0.00,Weather View 32 v70,2013-01-26 02:57:00,
2013-01-25 22:02:00,19.0,-6.7,30.15,NNW,337,5.0,9.0,31,0.00,,,0.00,Weather View 32 v70,2013-01-26 03:02:00,
2013-01-25 22:07:00,19.0,-5.4,30.15,NW,315,0.0,9.0,33,0.00,,,0.00,Weather View 32 v70,2013-01-26 03:07:00,
2013-01-25 22:12:00,19.0,-6.7,30.15,NW,315,3.0,9.0,31,0.00,,,0.00,Weather View 32 v70,2013-01-26 03:12:00,
2013-01-25 22:17:00,19.0,-6.7,30.15,NW,315,4.0,9.0,31,0.00,,,0.00,Weather View 32 v70,2013-01-26 03:17:00,
2013-01-25 22:22:00,19.0,-6.7,30.15,NW,315,4.0,9.0,31,0.00,,,0.00,Weather View 32 v70,2013-01-26 03:22:00,
2013-01-25 22:27:00,19.0,-4.8,30.15,NW,315,0.0,9.0,34,0.00,,,0.00,Weather View 32 v70,2013-01-26 03:27:00,
2013-01-25 22:32:00,19.0,-4.8,30.15,NW,315,0.0,8.0,34,0.00,,,0.00,Weather View 32 v70,2013-01-26 03:32:00,
2013-01-25 22:37:00,19.0,-4.8,30.15,NW,315,4.0,8.0,34,0.00,,,0.00,Weather View 32 v70,2013-01-26 03:37:00,
2013-01-25 22:42:00,19.0,-4.2,30.15,NW,315,3.0,8.0,35,0.00,,,0.00,Weather View 32 v70,2013-01-26 03:42:00,
2013-01-25 22:47:00,19.0,0.2,30.15,NW,315,0.0,7.0,43,0.00,,,0.00,Weather View 32 v70,2013-01-26 03:47:00,
2013-01-25 22:52:00,19.0,2.5,30.15,South,180,0.0,9.0,48,0.00,,,0.00,Weather View 32 v70,2013-01-26 03:52:00,
2013-01-25 22:57:00,19.0,3.0,30.15,South,180,0.0,9.0,49,0.00,,,0.00,Weather View 32 v70,2013-01-26 03:57:00,
2013-01-25 23:02:00,19.0,3.8,30.15,SSW,202,0.0,9.0,51,0.00,,,0.00,Weather View 32 v70,2013-01-26 04:02:00,
2013-01-25 23:07:00,18.0,3.3,30.15,South,180,3.0,9.0,52,0.00,,,0.00,Weather View 32 v70,2013-01-26 04:07:00,
2013-01-25 23:12:00,18.0,2.9,30.15,SSW,202,0.0,9.0,51,0.00,,,0.00,Weather View 32 v70,2013-01-26 04:12:00,
2013-01-25 23:17:00,18.0,4.2,30.15,NW,315,7.0,9.0,54,0.00,,,0.00,Weather View 32 v70,2013-01-26 04:17:00,
2013-01-25 23:22:00,18.0,4.2,30.15,NW,315,2.0,9.0,54,0.00,,,0.00,Weather View 32 v70,2013-01-26 04:22:00,
2013-01-25 23:27:00,18.0,5.3,30.15,NW,315,0.0,9.0,57,0.00,,,0.00,Weather View 32 v70,2013-01-26 04:27:00,
2013-01-25 23:32:00,18.0,5.7,30.15,WNW,292,0.0,9.0,58,0.00,,,0.00,Weather View 32 v70,2013-01-26 04:32:00,
2013-01-25 23:37:00,18.0,6.1,30.15,NW,315,0.0,9.0,59,0.00,,,0.00,Weather View 32 v70,2013-01-26 04:37:00,
2013-01-25 23:42:00,17.0,8.3,30.15,NNE,22,4.0,13.0,68,0.00,,,0.00,Weather View 32 v70,2013-01-26 04:42:00,
2013-01-25 23:47:00,17.0,8.9,30.15,North,360,4.0,13.0,70,0.00,,,0.00,Weather View 32 v70,2013-01-26 04:47:00,
2013-01-25 23:52:00,17.0,9.5,30.15,NW,315,6.0,13.0,72,0.00,,,0.00,Weather View 32 v70,2013-01-26 04:52:00,
2013-01-25 23:57:00,16.0,9.5,30.14,NE,45,6.0,13.0,75,0.00,,,0.00,Weather View 32 v70,2013-01-26 04:57:00,